This demonstration page uses our WeatherBlox Daily Observations layout. Learn more.

Left ArrowRight Arrow

Hourly Observations for August 25, 2015

Temp ( °F °C ) Dew Point ( °F °C ) Humidity (%) Winds ( mph kmh ) Pressure ( in mb ) Visibility ( mi km ) Precip ( " mm )
12:53 am 00:53 Clear 54 12.2 53 11.7 97 97 N N/A 29.99 1016 10 16 N/A
1:53 am 01:53 Clear 54 12.2 53 11.7 97 97 N N/A 29.99 1016 10 16 N/A
2:53 am 02:53 Clear 54 12.2 52 11.1 93 93 N N/A 29.99 1016 10 16 N/A
3:53 am 03:53 Clear 53 11.7 52 11.1 96 96 N N/A 29.98 1015 10 16 N/A
4:53 am 04:53 Clear 53 11.7 52 11.1 96 96 N N/A 29.99 1016 10 16 N/A
5:53 am 05:53 Clear 53 11.7 51 10.6 93 93 N N/A 30.00 1016 10 16 N/A
6:53 am 06:53 Clear 51 10.6 50 10 96 96 N N/A 30.02 1017 10 16 N/A
7:53 am 07:53 Sunny 56 13.3 53 11.7 90 90 W 3 6 30.03 1017 10 16 N/A
8:53 am 08:53 Sunny 61 16.1 54 12.2 78 78 N N/A 30.05 1018 10 16 N/A
9:53 am 09:53 Sunny 66 18.9 52 11.1 61 61 VRB 3 6 30.05 1018 10 16 N/A
10:53 am 10:53 Partly Cloudy 68 20 48 8.9 49 49 WNW 7 11 30.05 1018 10 16 N/A
11:53 am 11:53 Mostly Cloudy 69 20.6 49 9.4 49 49 undefined N/A 30.06 1018 10 16 N/A
12:53 pm 12:53 Cloudy 70 21.1 49 9.4 47 47 WNW 7 11 30.06 1018 10 16 N/A
1:53 pm 13:53 Cloudy 70 21.1 50 10 49 49 WNW 8 13 30.04 1017 10 16 N/A
2:53 pm 14:53 Cloudy 69 20.6 51 10.6 53 53 WNW 10 17 30.05 1018 10 16 N/A
3:53 pm 15:53 Cloudy 70 21.1 50 10 49 49 WNW 10 17 30.04 1017 10 16 N/A
4:53 pm 16:53 Cloudy 71 21.7 52 11.1 51 51 VRB 3 6 30.04 1017 10 16 N/A
5:53 pm 17:53 Cloudy 71 21.7 52 11.1 51 51 VRB 5 7 30.04 1017 10 16 N/A
6:53 pm 18:53 Mostly Cloudy 69 20.6 53 11.7 57 57 WSW 3 6 30.03 1017 10 16 N/A
7:53 pm 19:53 Cloudy 67 19.4 56 13.3 68 68 N N/A 30.03 1017 10 16 N/A
8:53 pm 20:53 Cloudy 64 17.8 58 14.4 81 81 N N/A 30.04 1017 10 16 N/A
9:53 pm 21:53 Cloudy 62 16.7 58 14.4 86 86 N N/A 30.05 1018 10 16 N/A
10:53 pm 22:53 Clear 58 14.4 56 13.3 93 93 N N/A 30.06 1018 10 16 N/A
11:53 pm 23:53 Clear 57 13.9 55 12.8 93 93 N N/A 30.06 1018 10 16 N/A

Powered by AerisWeather